Time,TemperatureF,DewpointF,PressureIn,WindDirection,WindDirectionDegrees,WindSpeedMPH,WindSpeedGustMPH,Humidity,HourlyPrecipIn,Conditions,Clouds,dailyrainin,SoftwareType,DateUTC
2013-11-24 00:01:00,42.2,22.0,30.07,West,270,0.0,-999.0,45,-99.99,,,0.00,weatherlink.com 1.10,2013-11-24 05:01:00,
2013-11-24 00:16:00,41.8,24.0,30.07,ENE,71,1.0,-999.0,49,-99.99,,,0.00,weatherlink.com 1.10,2013-11-24 05:16:00,
2013-11-24 00:31:00,41.5,22.0,30.07,ENE,72,0.0,-999.0,47,-99.99,,,0.00,weatherlink.com 1.10,2013-11-24 05:31:00,
2013-11-24 00:46:00,41.6,22.0,30.07,NW,312,0.0,-999.0,46,-99.99,,,0.00,weatherlink.com 1.10,2013-11-24 05:46:00,
2013-11-24 01:01:00,41.5,22.0,30.08,North,7,0.0,-999.0,46,-99.99,,,0.00,weatherlink.com 1.10,2013-11-24 06:01:00,
2013-11-24 01:16:00,41.1,21.0,30.09,South,191,1.0,-999.0,44,-99.99,,,0.00,weatherlink.com 1.10,2013-11-24 06:16:00,
2013-11-24 01:31:00,40.6,21.0,30.09,WNW,295,0.0,-999.0,45,-99.99,,,0.00,weatherlink.com 1.10,2013-11-24 06:31:00,
2013-11-24 01:46:00,39.8,19.0,30.10,WSW,247,0.0,-999.0,43,-99.99,,,0.00,weatherlink.com 1.10,2013-11-24 06:46:00,
2013-11-24 02:01:00,39.1,19.0,30.11,WNW,291,0.0,-999.0,44,-99.99,,,0.00,weatherlink.com 1.10,2013-11-24 07:01:00,
2013-11-24 02:16:00,38.5,19.0,30.11,South,184,0.0,-999.0,46,-99.99,,,0.00,weatherlink.com 1.10,2013-11-24 07:16:00,
2013-11-24 02:32:00,37.9,17.0,30.12,SSW,203,1.0,-999.0,42,-99.99,,,0.00,weatherlink.com 1.10,2013-11-24 07:32:00,
2013-11-24 02:47:00,37.3,16.0,30.12,West,272,0.0,-999.0,42,-99.99,,,0.00,weatherlink.com 1.10,2013-11-24 07:47:00,
2013-11-24 03:02:00,36.8,18.0,30.12,SW,220,3.0,-999.0,47,-99.99,,,0.00,weatherlink.com 1.10,2013-11-24 08:02:00,
2013-11-24 03:17:00,36.3,16.0,30.13,SSW,210,0.0,-999.0,43,-99.99,,,0.00,weatherlink.com 1.10,2013-11-24 08:17:00,
2013-11-24 03:32:00,36.0,15.0,30.14,West,261,1.0,-999.0,43,-99.99,,,0.00,weatherlink.com 1.10,2013-11-24 08:32:00,
2013-11-24 03:47:00,35.5,17.0,30.14,SSE,160,0.0,-999.0,47,-99.99,,,0.00,weatherlink.com 1.10,2013-11-24 08:47:00,
2013-11-24 04:02:00,35.0,16.0,30.15,WSW,257,0.0,-999.0,46,-99.99,,,0.00,weatherlink.com 1.10,2013-11-24 09:02:00,
2013-11-24 04:17:00,34.6,15.0,30.16,West,263,4.0,-999.0,44,-99.99,,,0.00,weatherlink.com 1.10,2013-11-24 09:17:00,
2013-11-24 04:32:00,34.1,15.0,30.16,NW,316,0.0,-999.0,46,-99.99,,,0.00,weatherlink.com 1.10,2013-11-24 09:32:00,
2013-11-24 04:47:00,33.5,13.0,30.18,WNW,285,1.0,-999.0,43,-99.99,,,0.00,weatherlink.com 1.10,2013-11-24 09:47:00,
2013-11-24 05:02:00,33.2,13.0,30.18,SE,128,0.0,-999.0,44,-99.99,,,0.00,weatherlink.com 1.10,2013-11-24 10:02:00,
2013-11-24 05:17:00,32.9,14.0,30.19,SW,215,2.0,-999.0,45,-99.99,,,0.00,weatherlink.com 1.10,2013-11-24 10:17:00,
2013-11-24 05:32:00,32.5,13.0,30.20,SSW,205,0.0,-999.0,44,-99.99,,,0.00,weatherlink.com 1.10,2013-11-24 10:32:00,
2013-11-24 05:47:00,32.1,13.0,30.21,South,189,0.0,-999.0,46,-99.99,,,0.00,weatherlink.com 1.10,2013-11-24 10:47:00,
2013-11-24 06:02:00,31.8,14.0,30.22,NW,318,2.0,-999.0,48,-99.99,,,0.00,weatherlink.com 1.10,2013-11-24 11:02:00,
2013-11-24 06:17:00,31.3,14.0,30.23,WNW,295,0.0,-999.0,48,-99.99,,,0.00,weatherlink.com 1.10,2013-11-24 11:17:00,
2013-11-24 06:32:00,30.9,14.0,30.24,WNW,285,1.0,-999.0,49,-99.99,,,0.00,weatherlink.com 1.10,2013-11-24 11:32:00,
2013-11-24 06:47:00,30.6,14.0,30.25,WSW,253,0.0,-999.0,51,-99.99,,,0.00,weatherlink.com 1.10,2013-11-24 11:47:00,
2013-11-24 07:02:00,30.3,14.0,30.26,WNW,294,2.0,-999.0,50,-99.99,,,0.00,weatherlink.com 1.10,2013-11-24 12:02:00,
2013-11-24 07:17:00,30.0,12.0,30.27,NW,309,5.0,-999.0,47,-99.99,,,0.00,weatherlink.com 1.10,2013-11-24 12:17:00,
2013-11-24 07:32:00,30.0,13.0,30.28,SSW,203,0.0,-999.0,49,-99.99,,,0.00,weatherlink.com 1.10,2013-11-24 12:32:00,
2013-11-24 07:47:00,30.0,10.0,30.29,SSW,205,0.0,-999.0,44,-99.99,,,0.00,weatherlink.com 1.10,2013-11-24 12:47:00,
2013-11-24 08:02:00,30.3,10.0,30.30,WNW,282,0.0,-999.0,43,-99.99,,,0.00,weatherlink.com 1.10,2013-11-24 13:02:00,
2013-11-24 08:17:00,31.3,10.0,30.32,SW,220,0.0,-999.0,41,-99.99,,,0.00,weatherlink.com 1.10,2013-11-24 13:17:00,
2013-11-24 08:32:00,30.9,9.0,30.32,WSW,250,0.0,-999.0,40,-99.99,,,0.00,weatherlink.com 1.10,2013-11-24 13:32:00,
2013-11-24 08:47:00,31.2,9.0,30.33,West,275,0.0,-999.0,39,-99.99,,,0.00,weatherlink.com 1.10,2013-11-24 13:47:00,
2013-11-24 09:02:00,31.0,6.0,30.34,North,353,1.0,-999.0,35,-99.99,,,0.00,weatherlink.com 1.10,2013-11-24 14:02:00,
2013-11-24 09:17:00,31.8,8.0,30.34,South,191,0.0,-999.0,37,-99.99,,,0.00,weatherlink.com 1.10,2013-11-24 14:17:00,
2013-11-24 09:32:00,32.2,7.0,30.34,WNW,292,0.0,-999.0,34,-99.99,,,0.00,weatherlink.com 1.10,2013-11-24 14:32:00,
2013-11-24 09:47:00,32.4,6.0,30.35,NW,306,2.0,-999.0,33,-99.99,,,0.00,weatherlink.com 1.10,2013-11-24 14:47:00,
2013-11-24 10:02:00,32.5,4.0,30.35,NW,309,0.0,-999.0,30,-99.99,,,0.00,weatherlink.com 1.10,2013-11-24 15:02:00,
2013-11-24 10:17:00,33.1,5.0,30.36,SW,217,0.0,-999.0,30,-99.99,,,0.00,weatherlink.com 1.10,2013-11-24 15:17:00,
2013-11-24 10:32:00,32.8,3.0,30.36,West,265,6.0,-999.0,28,-99.99,,,0.00,weatherlink.com 1.10,2013-11-24 15:32:00,
2013-11-24 10:47:00,33.4,3.0,30.36,West,261,2.0,-999.0,27,-99.99,,,0.00,weatherlink.com 1.10,2013-11-24 15:47:00,
2013-11-24 11:02:00,33.5,3.0,30.37,West,261,0.0,-999.0,27,-99.99,,,0.00,weatherlink.com 1.10,2013-11-24 16:02:00,
2013-11-24 11:17:00,34.1,3.0,30.36,WSW,240,3.0,-999.0,27,-99.99,,,0.00,weatherlink.com 1.10,2013-11-24 16:17:00,
2013-11-24 11:32:00,34.1,4.0,30.35,WSW,240,3.0,-999.0,28,-99.99,,,0.00,weatherlink.com 1.10,2013-11-24 16:32:00,
2013-11-24 11:48:00,34.1,4.0,30.35,SW,224,0.0,-999.0,28,-99.99,,,0.00,weatherlink.com 1.10,2013-11-24 16:48:00,
2013-11-24 12:03:00,34.0,2.0,30.34,NW,313,0.0,-999.0,26,-99.99,,,0.00,weatherlink.com 1.10,2013-11-24 17:03:00,
2013-11-24 12:18:00,34.3,3.0,30.34,North,349,0.0,-999.0,27,-99.99,,,0.00,weatherlink.com 1.10,2013-11-24 17:18:00,
2013-11-24 12:33:00,34.4,3.0,30.34,SSW,203,0.0,-999.0,26,-99.99,,,0.00,weatherlink.com 1.10,2013-11-24 17:33:00,
2013-11-24 12:48:00,34.7,3.0,30.32,South,186,0.0,-999.0,26,-99.99,,,0.00,weatherlink.com 1.10,2013-11-24 17:48:00,
2013-11-24 13:03:00,35.2,4.0,30.32,SSW,196,0.0,-999.0,27,-99.99,,,0.00,weatherlink.com 1.10,2013-11-24 18:03:00,
2013-11-24 13:18:00,35.2,3.0,30.32,SE,124,0.0,-999.0,26,-99.99,,,0.00,weatherlink.com 1.10,2013-11-24 18:18:00,
2013-11-24 13:33:00,35.6,5.0,30.32,NW,322,0.0,-999.0,27,-99.99,,,0.00,weatherlink.com 1.10,2013-11-24 18:33:00,
2013-11-24 13:48:00,35.5,2.0,30.32,SSW,206,0.0,-999.0,24,-99.99,,,0.00,weatherlink.com 1.10,2013-11-24 18:48:00,
2013-11-24 14:03:00,35.8,2.0,30.32,SW,230,0.0,-999.0,24,-99.99,,,0.00,weatherlink.com 1.10,2013-11-24 19:03:00,
2013-11-24 14:18:00,36.3,3.0,30.32,West,260,2.0,-999.0,25,-99.99,,,0.00,weatherlink.com 1.10,2013-11-24 19:18:00,
2013-11-24 14:33:00,36.3,3.0,30.32,South,185,4.0,-999.0,25,-99.99,,,0.00,weatherlink.com 1.10,2013-11-24 19:33:00,
2013-11-24 14:48:00,36.2,2.0,30.32,NNW,339,0.0,-999.0,24,-99.99,,,0.00,weatherlink.com 1.10,2013-11-24 19:48:00,
2013-11-24 15:03:00,36.6,3.0,30.32,WNW,292,0.0,-999.0,24,-99.99,,,0.00,weatherlink.com 1.10,2013-11-24 20:03:00,
2013-11-24 15:18:00,36.8,4.0,30.32,North,354,0.0,-999.0,25,-99.99,,,0.00,weatherlink.com 1.10,2013-11-24 20:18:00,
2013-11-24 15:33:00,36.8,3.0,30.32,NNE,14,0.0,-999.0,24,-99.99,,,0.00,weatherlink.com 1.10,2013-11-24 20:33:00,
2013-11-24 15:48:00,36.3,3.0,30.33,NNE,28,0.0,-999.0,25,-99.99,,,0.00,weatherlink.com 1.10,2013-11-24 20:48:00,
2013-11-24 16:03:00,35.3,2.0,30.33,SSW,206,0.0,-999.0,24,-99.99,,,0.00,weatherlink.com 1.10,2013-11-24 21:03:00,
2013-11-24 16:18:00,34.9,2.0,30.34,WNW,298,0.0,-999.0,25,-99.99,,,0.00,weatherlink.com 1.10,2013-11-24 21:18:00,
2013-11-24 16:33:00,34.4,3.0,30.34,WSW,239,0.0,-999.0,26,-99.99,,,0.00,weatherlink.com 1.10,2013-11-24 21:33:00,
2013-11-24 16:48:00,33.8,4.0,30.34,NE,51,0.0,-999.0,28,-99.99,,,0.00,weatherlink.com 1.10,2013-11-24 21:48:00,
2013-11-24 17:03:00,33.2,2.0,30.34,NE,51,0.0,-999.0,27,-99.99,,,0.00,weatherlink.com 1.10,2013-11-24 22:03:00,
2013-11-24 17:18:00,32.4,5.0,30.35,NE,51,0.0,-999.0,31,-99.99,,,0.00,weatherlink.com 1.10,2013-11-24 22:18:00,
2013-11-24 17:33:00,31.9,6.0,30.36,NE,45,0.0,-999.0,33,-99.99,,,0.00,weatherlink.com 1.10,2013-11-24 22:33:00,
2013-11-24 17:48:00,31.5,5.0,30.36,NE,45,0.0,-999.0,32,-99.99,,,0.00,weatherlink.com 1.10,2013-11-24 22:48:00,
2013-11-24 18:03:00,31.5,5.0,30.36,NE,52,0.0,-999.0,32,-99.99,,,0.00,weatherlink.com 1.10,2013-11-24 23:03:00,
2013-11-24 18:18:00,31.0,3.0,30.38,NE,52,0.0,-999.0,30,-99.99,,,0.00,weatherlink.com 1.10,2013-11-24 23:18:00,
2013-11-24 18:33:00,30.1,9.0,30.38,NE,52,0.0,-999.0,41,-99.99,,,0.00,weatherlink.com 1.10,2013-11-24 23:33:00,
2013-11-24 18:48:00,29.8,7.0,30.38,NE,55,0.0,-999.0,38,-99.99,,,0.00,weatherlink.com 1.10,2013-11-24 23:48:00,
2013-11-24 19:03:00,29.5,6.0,30.39,NE,55,0.0,-999.0,37,-99.99,,,0.00,weatherlink.com 1.10,2013-11-25 00:03:00,
2013-11-24 19:18:00,29.0,6.0,30.39,NE,55,0.0,-999.0,38,-99.99,,,0.00,weatherlink.com 1.10,2013-11-25 00:18:00,
2013-11-24 19:33:00,29.0,5.0,30.41,NE,55,0.0,-999.0,36,-99.99,,,0.00,weatherlink.com 1.10,2013-11-25 00:33:00,
2013-11-24 19:48:00,28.7,6.0,30.40,NNE,13,0.0,-999.0,39,-99.99,,,0.00,weatherlink.com 1.10,2013-11-25 00:48:00,
2013-11-24 20:03:00,29.3,9.0,30.40,NNE,16,0.0,-999.0,43,-99.99,,,0.00,weatherlink.com 1.10,2013-11-25 01:03:00,
2013-11-24 20:18:00,28.7,10.0,30.41,NNE,16,0.0,-999.0,45,-99.99,,,0.00,weatherlink.com 1.10,2013-11-25 01:18:00,
2013-11-24 20:33:00,27.8,10.0,30.42,NNE,16,0.0,-999.0,48,-99.99,,,0.00,weatherlink.com 1.10,2013-11-25 01:33:00,
2013-11-24 20:48:00,27.2,11.0,30.42,NNE,17,0.0,-999.0,51,-99.99,,,0.00,weatherlink.com 1.10,2013-11-25 01:48:00,
2013-11-24 21:03:00,26.7,11.0,30.42,NNE,17,0.0,-999.0,52,-99.99,,,0.00,weatherlink.com 1.10,2013-11-25 02:03:00,
2013-11-24 21:18:00,26.6,11.0,30.42,NNE,17,0.0,-999.0,52,-99.99,,,0.00,weatherlink.com 1.10,2013-11-25 02:18:00,
2013-11-24 21:33:00,26.1,12.0,30.43,NNE,17,0.0,-999.0,55,-99.99,,,0.00,weatherlink.com 1.10,2013-11-25 02:33:00,
2013-11-24 21:48:00,26.1,13.0,30.43,NNE,17,0.0,-999.0,57,-99.99,,,0.00,weatherlink.com 1.10,2013-11-25 02:48:00,
2013-11-24 22:03:00,26.4,11.0,30.42,NNW,336,0.0,-999.0,53,-99.99,,,0.00,weatherlink.com 1.10,2013-11-25 03:03:00,
2013-11-24 22:18:00,26.9,9.0,30.44,NNW,337,0.0,-999.0,48,-99.99,,,0.00,weatherlink.com 1.10,2013-11-25 03:18:00,
2013-11-24 22:33:00,26.7,9.0,30.44,NNW,337,0.0,-999.0,47,-99.99,,,0.00,weatherlink.com 1.10,2013-11-25 03:33:00,
2013-11-24 22:48:00,26.1,9.0,30.45,NNW,336,0.0,-999.0,48,-99.99,,,0.00,weatherlink.com 1.10,2013-11-25 03:48:00,
2013-11-24 23:03:00,25.6,9.0,30.45,NNW,336,0.0,-999.0,49,-99.99,,,0.00,weatherlink.com 1.10,2013-11-25 04:03:00,
2013-11-24 23:18:00,25.3,10.0,30.45,NNW,336,0.0,-999.0,53,-99.99,,,0.00,weatherlink.com 1.10,2013-11-25 04:18:00,
2013-11-24 23:33:00,25.0,10.0,30.45,NNW,336,0.0,-999.0,53,-99.99,,,0.00,weatherlink.com 1.10,2013-11-25 04:33:00,
2013-11-24 23:48:00,24.8,10.0,30.45,NNW,336,0.0,-999.0,54,-99.99,,,0.00,weatherlink.com 1.10,2013-11-25 04:48:00,